Hourly Data Report for May 26, 2004

SHERBROOKE A
QUEBEC

45°26'00.000" N
71°41'00.000" W
241.40 m
7028124
71610
YSC

Download Data

Hourly Data (May 2004)
Hourly Data Report for May 26, 2004
TIME
LST
Temp Definition
°C
Dew Point Definition
°C
Rel Hum Definition
%
Precip. Amount Definition
mm

Wind Dir Definition
10's deg

Wind Spd Definition
km/h
Visibility Definition
km
Stn Press Definition
kPa
Hmdx Definition


Wind Chill Definition


Weather Definition


00:00 9.7 6.6 81   14 13 15.0 98.33      
01:00 9.7 6.4 80   14 7 15.0 98.29     Rain
02:00 8.7 6.9 88   13 9 11.3 98.22     Rain
03:00 8.1 6.6 90   14 9 15.0 98.16     Rain
04:00 7.9 6.7 92   11 6 8.0 98.09     Rain
05:00 7.8 6.6 92   15 15 8.0 98.12     Rain
06:00 7.5 6.2 91   14 13 15.0 98.12      
07:00 7.6 6.3 91   14 13 19.3 98.09     Rain
08:00 8.1 6.9 92   14 11 19.3 98.05     Cloudy
09:00 8.3 7.2 93   12 7 19.3 98.02     Drizzle
10:00 9.7 8.0 89   14 7 19.3 98.00     Cloudy
11:00 10.7 8.3 85   16 13 19.3 97.97     Cloudy
12:00 11.8 9.0 83   19 6 19.3 97.89     Cloudy
13:00 13.2 9.7 79   18 9 19.3 97.83     Cloudy
14:00 13.8 10.5 80   17 11 19.3 97.78     Cloudy
15:00 14.7 11.0 78   18 9 19.3 97.68     Cloudy
16:00 14.6 10.9 78   22 6 19.3 97.68     Cloudy
17:00 13.9 10.9 82   26 9 15.0 97.66      
18:00 13.0 10.2 83   25 6 15.0 97.68      
19:00 12.5 10.2 86   25 6 15.0 97.70     Rain
20:00 11.8 10.4 91   19 4 8.0 97.70     Drizzle
21:00 11.6 10.6 94     0 11.3 97.78     Drizzle
22:00 11.4 10.6 95   8 4 5.6 97.71     Rain
23:00 11.4 10.3 93     0 15.0 97.71      

Notes on Data Quality.

Legend

  • E = Estimated
  • M = Missing
  • NA = Not Available*
  • [empty] = Indicates an unobserved value
Date modified: